Regional Weather Roundup
Issued by NWS

Home | Current Version | Previous Version | Text Only | Print | Product List | Glossary Off
Versions: 1 2 3 4 5 6 7 8 9 10 11 12 13 14 15 16 17 18 19 20 21 22 23 24 25 26 27 28 29 30 31 32 33 34 35 36 37 38 39 40 41 42 43 44 45 46 47 48 49 50

000
ASUS45 KTFX 281204
RWRMT
MONTANA HOURLY WEATHER ROUNDUP
NATIONAL WEATHER SERVICE GREAT FALLS MT
504 AM MST WED JAN 28 2015

NOTE: "FAIR" INDICATES FEW OR NO CLOUDS BELOW 12000 FEET WITH NO
SIGNIFICANT WEATHER AND/OR OBSTRUCTIONS TO VISIBILITY.

* THESE STATIONS ARE NOT UNDER NWS QUALITY CONTROL. THEY DO NOT
   REPORT WEATHER SUCH AS PRECIPITATION OR FOG.

MTZ001>007-043-281300-
WEST OF THE DIVIDE
CITY           SKY/WX    TMP DP  RH WIND       PRES   REMARKS
KALISPELL      FOG       14  12  92 CALM      30.14R VSB M1/4
MISSOULA       FOG       25  25 100 CALM      30.18R
BUTTE          MOCLDY    28  27  96 CALM      30.11R
MULLAN PASS    FOG       28  28 100 CALM      30.14R VSB 1/2
* ANACONDA     PTCLDY    34  28  79 E3         N/A
* ESSEX        N/A       26  24  92 N/A        N/A
* LINCOLN      N/A       36  23  59 S3         N/A
* LOOKOUT PASS N/A       33  31  92 N4         N/A
* POLSON       N/A       35  27  73 SE1        N/A
* RONAN APT    CLEAR     37  37 100 N/A        N/A
* SEELEY LAKE  N/A       19  17  92 E1         N/A
* THOMP F APT  PTCLDY    32  31  96 N/A        N/A
* YAAK HILL    N/A       32  30  92 N/A        N/A
$$

MTZ008-052>055-281300-
SOUTHWEST MONTANA
CITY           SKY/WX    TMP DP  RH WIND       PRES   REMARKS
BOZEMAN        CLOUDY    36  32  85 SW5       30.08R WCI  32
DILLON         CLOUDY    37  32  82 S12       30.09R WCI  29
* W YELLOWSTON MOCLDY    32  31  96 SW3        N/A
* THREE FORKS  CLOUDY    41  41 100 N/A        N/A
* BOULDER HILL N/A       39  22  51 S6         N/A   WCI  35
* MONIDA PASS  N/A       31  31 100 N/A        N/A
* RAYNOLDS PAS N/A       31  15  51 SE8        N/A   WCI  24
* WHITEHALL    N/A       42  34  73 W5G12      N/A
* WISE RIVER   N/A       32  26  79 NW3G9      N/A
$$

MTZ009>010-012-014-046-048-049-054-281300-
EAST SLOPES AND CENTRAL MONTANA
CITY           SKY/WX    TMP DP  RH WIND       PRES   REMARKS
CUT BANK       CLEAR     34  25  70 NW14      30.03R WCI  24
GREAT FALLS    CLOUDY    43  27  53 SW15      30.00R
HELENA         CLOUDY    37  28  70 S6        30.07R WCI  32
MALMSTROM AFB  CLOUDY    48  25  41 W12       30.01R
* DEARBORN     N/A       50  22  33 S10        N/A
* EAST GLACIER N/A       38  23  55 W13        N/A   WCI  30
* MONARCH      N/A       44  17  34 W16        N/A
* PENDROY      N/A       39  24  55 W17G25     N/A   WCI  30
* ROGERS PASS  N/A       38  22  53 SE8G17     N/A   WCI  32
* SWEET GRASS  N/A       32  28  85 NW14       N/A   WCI  22
$$

MTZ011-013-016-021-035-040-045-047-050-051-281300-
NORTH CENTRAL MONTANA
CITY           SKY/WX    TMP DP  RH WIND       PRES   REMARKS
HAVRE          MOCLDY    37  30  76 W14       29.93R WCI  28
LEWISTOWN      CLOUDY    43  28  56 W7        29.97R
* N BAR RANCH  FAIR      48  23  37 NW22G31   29.93R
* CHESTER      N/A       39  27  62 NW10G15    N/A   WCI  32
* DENTON       N/A       44  25  47 W9         N/A
* GEYSER       N/A       43  22  43 NW15       N/A
* JUDITH GAP   N/A       45  25  45 NE5        N/A
* LOMA         N/A       42  28  58 SW7        N/A
$$

MTZ017>020-022>027-061-062-281300-
NORTHEAST MONTANA
CITY           SKY/WX    TMP DP  RH WIND       PRES   REMARKS
GLASGOW        PTCLDY    37  28  70 NW10      29.80R WCI  30
GLENDIVE       CLOUDY    39  30  70 W6        29.80R WCI  35
JORDAN         PTCLDY    37  30  76 W7        29.85R WCI  32
SIDNEY         MOCLDY    34  30  85 CALM      29.78R
WOLF POINT     PTCLDY    37  32  82 SW5       29.79R WCI  33
* BEAVER HILL  N/A       40  31  70 SW10G16    N/A   WCI  34
* CIRCLE       N/A       39  32  76 N/A        N/A
* LINDSAY DVD  N/A       45  29  54 W20        N/A
* NAVAJO       N/A       37  31  79 NW8        N/A   WCI  31
* SACO         N/A       39  30  70 SW8        N/A   WCI  33
$$

MTZ028>042-056>058-281300-
SOUTHCENTRAL AND SOUTHEAST MONTANA
CITY           SKY/WX    TMP DP  RH WIND       PRES   REMARKS
BAKER          MOCLDY    36  30  79 NW3       29.81R
BILLINGS       CLOUDY    46  30  54 SW16      29.94R
LIVINGSTON     CLOUDY    46  36  68 SW18      30.04R
MILES CITY     CLOUDY    39  32  76 W8        29.86R WCI  33
* LAUREL APT   CLOUDY    45  28  51 N/A        N/A
* ROUNDUP APT  CLOUDY    48  28  46 SW5        N/A
* ALZADA       N/A       39  31  73 W7         N/A   WCI  34
* HYSHAM       N/A       44  27  51 W4         N/A
* REED POINT   N/A       54  31  42 W17G24     N/A
* ROSCOE HILL  N/A       47  24  40 SW6G21     N/A
$$

REGIONAL REPORTS...DAKOTAS
CITY           SKY/WX    TMP DP  RH WIND       PRES   REMARKS
WILLISTON      PTCLDY    28  27  96 CALM      29.74R
DICKINSON      CLOUDY    39  32  76 W12       29.72R WCI  32
CROSBY         FOG       28  28 100 E12       29.76R VSB M1/4 WCI  18
WATFORD CITY   CLEAR     32  32 100 SW6       29.72S WCI  26
BISMARCK       PTCLDY    25  25 100 SE5       29.72F WCI  19
GRAND FORKS    FOG       34  32  92 S10       29.79F WCI  26
FARGO          CLOUDY    34  30  85 S18       29.81F WCI  23
BUFFALO SD     PTCLDY    41  30  65 W10       29.73R
RAPID CITY     PTCLDY    36  25  64 NW3       29.78R
$$

REGIONAL REPORTS...WYOMING/IDAHO/WASHINGTON
CITY           SKY/WX    TMP DP  RH WIND       PRES   REMARKS
GILLETTE       CLOUDY    45  28  51 W9        29.90R
SHERIDAN       CLOUDY    50  34  54 W13       29.92R
CODY           CLOUDY    46  32  58 W5        30.01R
YELLOWSTONE LA CLOUDY    30  28  92 CALM      30.13S
SALMON         CLOUDY   N/A N/A N/A CALM      30.20R VSB 3
MULLAN PASS    FOG       28  28 100 CALM      30.14S VSB 1/2
SAND POINT     HAZE     N/A N/A N/A CALM      30.24R
SPOKANE        FOG       32  30  92 SE8       30.24R VSB 1/2  WCI  25
$$

REGIONAL REPORTS...ALBERTA
CITY           SKY/WX    TMP DP  RH WIND       PRES   REMARKS
LETHBRIDGE     FOG       25  25 100 SW7       30.07R VSB 2    WCI  17
MEDICINE HAT   FOG       28  28 100 NW7       30.04R VSB 1    WCI  21

$$




USA.gov is the U.S. government's official web portal to all federal, state and local government web resources and services.